Location: Unspecified
(0.0000°N, 0.0000°E)
Time: 08:19:39
(UTC+00:00)

Amsat-Oscar-6 - Pass Details

Date: 21 June 2019
Orbit: 1448 x 1454 km, 101.8° (Epoch: 16 July)

Event Time Altitude Azimuth Distance (km) Brightness Sun altitude
Rises 04:24:16 0° 351° (N) 4,541 ? -22.2°
Reaches altitude 10° 04:27:35 10° 340° (NNW) 3,565 ? -21.5°
Maximum altitude 04:34:08 26° 287° (WNW) 2,522 ? -20.0°
Enters shadow 04:35:51 25° 269° (W) 2,607 ? -19.6°
